THOR ALTAIR R/B, 1583

Orbit data source: Space-Track

THOR ALTAIR R/B, 1583 is space debris in SSO originally from a launch on Fri, 10 Sep 1965 UTC launched from the Air Force Western Test Range (AFWTR). Debris objects in space refer to the collection of defunct objects orbiting the Earth. Examples of debris include non-operational satellites, rocket bodies, and fragments generated from explosions, collisions, or faulty payload assembly.

Loading next visibility...
Identifier
1583, 1965-072D
Orbit
SSO
Country
Flag of USUS
Related business
Manufacturer
UTC
Mission
Spacecraft
Bus & Motor
FW4, Unknown motor
Mass
25 kg wet, 25 kg dry
Launch date (UTC)
1965-09-10 (60 years ago)
Launch vehicle
Unknown
Launch site
Air Force Western Test Range (AFWTR)
Object type
Payload
Rocket body
Debris
Shape & HBR
Unknown
Radar Cross Section
Medium (>0.1 m² and <1 m²)

Expand to show TLE details & history
Last TLE update: 12 hours ago

TLE from 12 hours ago
0 THOR ALTAIR R/B
1 01583U 65072D   25346.88412723  .00002685  00000-0  44730-3 0  9994
2 01583  98.4124 212.5917 0142664  95.4467 266.3027 14.64355448139678
Epoch: 2025-12-12T21:13Z
TLE epoch observation values (Epoch: 2025-12-12T21:13:08.592Z)
Latitude
-0.00009°
Longitude
172.48656°
Altitude
690.054 km
Speed
7.507 km/s
True Right ascension
14h 10m 22s
True Declination
0° 00' 00"
Sunlit
Object was in daylight at epoch
Visualization orbit readout
Latitude
Unknown
Longitude
Unknown
Altitude
Unknown
Speed
Unknown
Apparent Right ascension
Unknown
Apparent Declination
Unknown
Sunlit
N/A
Visualization observer readout
Local Sidereal Time
07:30:58
Azimuth
Unknown
Elevation
Unknown
Doppler factor
Unknown
Orbital elements
Apogee altitude
776.87 km
Perigee altitude
575.589 km
Semi-major axis
7,054.367 km
Eccentricity
0.01427
Inclination
98.4124°
RAAN
212.5917°
Arg. of periapsis
95.4467°
True anomaly
264.67339°
Mean anomaly
266.3027°
Eccentric anomaly
265.48783°
Mean motion
3.66316 °/min
Orbital period
98.28 mins
BSTAR
0.0004473
Loading maneuver chart data...
Computing Atmospheric mass density...
Loading historical data...
Loading historical data...
Loading historical data...
Loading historical data...
Loading historical data...
Loading historical data...
Loading historical data...

Documentation

Showing up to 5 results
|